Weather History for Gulfport, MS

Change the Weather History Date:

Wednesday, September 11, 2013

  Actual Average Record
Temperature  
Mean Temperature 82 °F -  
Max Temperature 91 °F 87 °F 98 °F (1980)
Min Temperature 73 °F 70 °F 56 °F (1976)
Cooling Degree Days 17    
Growing Degree Days 32 (Base 50)    
Moisture  
Dew Point 71 °F    
Average Humidity 69    
Maximum Humidity 91    
Minimum Humidity 47    
Precipitation  
Precipitation 0.00 in - - ()
Sea Level Pressure  
Sea Level Pressure 30.07 in    
Wind  
Wind Speed 7 mph (East)    
Max Wind Speed 15 mph    
Max Gust Speed -    
Visibility 10 miles    
Events      
Averages and records for this station are not official NWS values.
T = Trace of Precipitation, MM = Missing Value Source: NWS Daily Summary

Daily Weather History Graph

Daily Weather History Graph

Search for Another Location

Airport:

Trip Planner

Search our weather history database for the weather conditions in past years. The results will help you decide how hot, cold, wet, or windy it might be!

Date:

Astronomy

Sep. 11, 2013 Rise Set
Actual Time 6:38 AM CDT 7:06 PM CDT
Civil Twilight 6:14 AM CDT 7:30 PM CDT
Nautical Twilight 5:46 AM CDT 7:58 PM CDT
Astronomical Twilight 5:17 AM CDT 8:27 PM CDT
Moon 12:40 PM CDT (9/11) 11:29 PM CDT (9/11)
Length of Visible Light 13h 16m
Length of Day
12h 27m
Waxing Crescent, 39% of the Moon is Illuminated
Sep 11
Waxing Crescent
Sep 12
First Quarter
Sep 19
Full
Sep 26
Last Quarter
Oct 4
New

Hourly Weather History & Observations

Time (CDT) Temp. Heat Index Dew Point Humidity Pressure Visibility Wind Dir Wind Speed Gust Speed Precip Events Conditions
12:53 AM 78.1 °F - 73.0 °F 84% 30.08 in 10.0 mi NE 5.8 mph - N/A   Clear
1:53 AM 77.0 °F - 72.0 °F 84% 30.07 in 10.0 mi NE 5.8 mph - N/A   Clear
2:53 AM 75.9 °F - 72.0 °F 87% 30.07 in 10.0 mi NE 5.8 mph - N/A   Clear
3:53 AM 75.0 °F - 71.1 °F 87% 30.07 in 9.0 mi North 3.5 mph - N/A   Clear
4:53 AM 73.9 °F - 71.1 °F 91% 30.08 in 8.0 mi NNE 4.6 mph - N/A   Clear
5:53 AM 73.9 °F - 71.1 °F 91% 30.09 in 8.0 mi North 3.5 mph - N/A   Clear
6:53 AM 73.9 °F - 71.1 °F 91% 30.10 in 7.0 mi NNE 6.9 mph - N/A   Clear
7:53 AM 77.0 °F - 71.1 °F 82% 30.11 in 9.0 mi NNE 6.9 mph - N/A   Partly Cloudy
8:53 AM 82.0 °F 85.9 °F 70.0 °F 67% 30.11 in 10.0 mi NE 8.1 mph - N/A   Clear
9:53 AM 87.1 °F 92.0 °F 70.0 °F 57% 30.12 in 10.0 mi ENE 11.5 mph - N/A   Clear
10:53 AM 89.1 °F 94.1 °F 70.0 °F 53% 30.11 in 10.0 mi East 9.2 mph - N/A   Clear
11:53 AM 91.0 °F 95.2 °F 68.0 °F 47% 30.11 in 10.0 mi East 8.1 mph - N/A   Partly Cloudy
12:53 PM 91.9 °F 99.5 °F 72.0 °F 52% 30.10 in 6.0 mi SSE 11.5 mph - N/A   Haze
1:53 PM 90.0 °F 96.4 °F 71.1 °F 54% 30.07 in 10.0 mi ESE 9.2 mph - N/A   Scattered Clouds
2:53 PM 90.0 °F 96.9 °F 72.0 °F 55% 30.06 in 10.0 mi SE 11.5 mph - N/A   Partly Cloudy
3:53 PM 90.0 °F 99.0 °F 73.9 °F 59% 30.04 in 10.0 mi SE 15.0 mph - N/A   Clear
4:53 PM 88.0 °F 96.5 °F 73.9 °F 63% 30.04 in 10.0 mi ESE 15.0 mph - N/A   Partly Cloudy
5:53 PM 87.1 °F 93.6 °F 72.0 °F 61% 30.04 in 10.0 mi ESE 12.7 mph - N/A   Clear
6:53 PM 84.9 °F 89.4 °F 70.0 °F 61% 30.03 in 10.0 mi ESE 8.1 mph - N/A   Clear
7:53 PM 84.9 °F 88.8 °F 69.1 °F 59% 30.04 in 10.0 mi ESE 8.1 mph - N/A   Clear
8:53 PM 84.0 °F 87.8 °F 69.1 °F 61% 30.05 in 10.0 mi SE 8.1 mph - N/A   Clear
9:53 PM 82.9 °F 87.0 °F 70.0 °F 65% 30.06 in 10.0 mi SE 5.8 mph - N/A   Clear
10:53 PM 81.0 °F 84.9 °F 71.1 °F 72% 30.06 in 10.0 mi Calm Calm - N/A   Clear
11:53 PM 77.0 °F - 71.1 °F 82% 30.04 in 10.0 mi Calm Calm - N/A   Clear